Regional Weather Roundup
Issued by NWS

Home | Current Version | Previous Version | Text Only | Print | Product List | Glossary Off
Versions: 1 2 3 4 5 6 7 8 9 10 11 12 13 14 15 16 17 18 19 20 21 22 23 24 25 26 27 28 29 30 31 32 33 34 35 36 37 38 39 40 41 42 43 44 45 46 47 48 49 50

000
ASUS43 KBIS 172202
RWRND

NORTH DAKOTA REGIONAL WEATHER ROUNDUP
NATIONAL WEATHER SERVICE BISMARCK ND
400 PM CST FRI NOV 17 2017

NOTE: "FAIR" INDICATES FEW OR NO CLOUDS BELOW 12,000 FEET WITH NO
SIGNIFICANT WEATHER AND/OR OBSTRUCTIONS TO VISIBILITY.


NDZ001>003-009>011-017-172300-
NORTHWEST NORTH DAKOTA

CITY           SKY/WX    TMP DP  RH WIND       PRES   REMARKS
WILLISTON      CLEAR     34  18  52 CALM      29.65F
MINOT          CLOUDY    27  14  58 N3        29.68S
$$

NDZ018>021-031>035-040>046-172300-
SOUTHWEST NORTH DAKOTA

CITY           SKY/WX    TMP DP  RH WIND       PRES   REMARKS
BISMARCK       CLOUDY    36  25  64 CALM      29.71R
DICKINSON      PTCLDY    41  25  53 S3        29.62S
GARRISON         N/A     29  20  69 NW5       29.68R
HETTINGER ARPT MOSUNNY   43  31  62 S7        29.65F
$$

NDZ004>008-012>016-024-026-027-054-172300-
NORTHEAST NORTH DAKOTA

CITY           SKY/WX    TMP DP  RH WIND       PRES   REMARKS
GRAND FORKS    MOCLDY    23  16  74 N8        29.71S WCI  14
GRND FRKS AFB  CLOUDY    22  15  73 NW9       29.71S WCI  12
DEVILS LAKE    CLEAR     22  15  75 NW8       29.70S WCI  12
$$

NDZ022-023-025-028>030-036>039-047>053-172300-
SOUTHEAST NORTH DAKOTA

CITY           SKY/WX    TMP DP  RH WIND       PRES   REMARKS
FARGO          CLOUDY    32  23  69 N13       29.69R
JAMESTOWN      PTCLDY    27  18  69 NW9       29.69S WCI  18
$$





USA.gov is the U.S. government's official web portal to all federal, state and local government web resources and services.